Fredericksburg, VA

6:22 AM EST on December 09, 2019 (GMT -0500)
Shannon

Weather History for KEZF - October, 2019

Change the Weather History Date:

Sunday, October 20, 2019

  Actual Average (KNYG) Record (KNYG)
Temperature  
Mean Temperature 54 °F -  
Max Temperature 57 °F 63 °F 82 °F (2016)
Min Temperature 52 °F 44 °F 34 °F (2008)
Degree Days  
Heating Degree Days 10    
Growing Degree Days 4 (Base 50)    
Moisture  
Dew Point 55 °F    
Average Humidity 98    
Maximum Humidity 100    
Minimum Humidity 89    
Precipitation  
Precipitation 1.25 in - - ()
Sea Level Pressure  
Sea Level Pressure 29.90 in    
Wind  
Wind Speed 4 mph ()    
Max Wind Speed 14 mph    
Max Gust Speed 22 mph    
Visibility 7.4 miles    
Events Rain    
Averages and records for this station are not official NWS values.
T = Trace of Precipitation, MM = Missing Value Source: Averaged Metar Reports

Daily Weather History Graph

Daily Weather History Graph

Search for Another Location

Airport or City:

Astronomy

Oct. 20, 2019 Rise Set
Actual Time 7:23 AM EDT 6:25 PM EDT
Civil Twilight 6:56 AM EDT 6:52 PM EDT
Nautical Twilight 6:25 AM EDT 7:22 PM EDT
Astronomical Twilight 5:55 AM EDT 7:53 PM EDT
Moon 11:35 PM EDT (10/20) 1:46 PM EDT (10/20)
Length of Visible Light 11h 55m
Length of Day
11h 02m
Waning Gibbous, 59% of the Moon is Illuminated
Oct 20
Waning Gibbous
Oct 21
Last Quarter
Oct 27
New
Nov 4
First Quarter
Nov 12
Full

Hourly Weather History & Observations

Time (EDT) Temp. Dew Point Humidity Pressure Visibility Wind Dir Wind Speed Gust Speed Precip Events Conditions
12:15 AM 53.8 °F 50.9 °F 90% 30.01 in 10.0 mi Calm Calm - N/A   Scattered Clouds
12:35 AM 53.4 °F 51.3 °F 92% 30.00 in 10.0 mi Calm Calm - N/A   Mostly Cloudy
12:55 AM 54.0 °F 50.7 °F 89% 29.99 in 10.0 mi Calm Calm - N/A   Overcast
1:15 AM 54.1 °F 51.6 °F 91% 29.99 in 10.0 mi Calm Calm - N/A   Overcast
1:35 AM 54.5 °F 51.4 °F 89% 29.99 in 10.0 mi Calm Calm - N/A   Overcast
1:55 AM 54.5 °F 51.4 °F 89% 29.98 in 10.0 mi Calm Calm - N/A   Overcast
2:15 AM 54.7 °F 51.4 °F 89% 29.97 in 10.0 mi Calm Calm - N/A   Overcast
2:35 AM 54.5 °F 52.2 °F 92% 29.97 in 10.0 mi Calm Calm - N/A   Overcast
2:55 AM 55.0 °F 51.8 °F 89% 29.96 in 10.0 mi Calm Calm - N/A   Overcast
3:15 AM 55.0 °F 52.2 °F 90% 29.95 in 10.0 mi Calm Calm - N/A   Overcast
3:35 AM 55.2 °F 52.2 °F 89% 29.95 in 10.0 mi Calm Calm - N/A Rain Light Rain
3:55 AM 54.7 °F 53.1 °F 94% 29.94 in 10.0 mi Calm Calm - N/A Rain Light Rain
4:15 AM 54.1 °F 53.2 °F 97% 29.94 in 10.0 mi Calm Calm - 0.01 in Rain Light Rain
4:35 AM 54.0 °F 53.8 °F 99% 29.94 in 10.0 mi Calm Calm - 0.02 in Rain Rain
4:55 AM 53.6 °F 53.6 °F 100% 29.94 in 7.0 mi NW 3.5 mph - 0.06 in Rain Rain
5:15 AM 53.6 °F 53.6 °F 100% 29.94 in 7.0 mi Calm Calm - 0.03 in Rain Rain
5:35 AM 53.4 °F 53.4 °F 100% 29.94 in 7.0 mi North 4.6 mph - 0.06 in Rain Rain
5:55 AM 53.1 °F 53.1 °F 100% 29.94 in 5.0 mi North 5.8 mph - 0.11 in Rain Rain
6:15 AM 52.7 °F 52.7 °F 100% 29.94 in 7.0 mi North 5.8 mph - 0.05 in Rain Rain
6:35 AM 52.3 °F 52.3 °F 100% 29.94 in 7.0 mi North 3.5 mph - 0.09 in Rain Rain
6:55 AM 52.2 °F 52.2 °F 100% 29.94 in 5.0 mi North 5.8 mph - 0.17 in Rain Heavy Rain
7:15 AM 52.0 °F 52.0 °F 100% 29.93 in 7.0 mi North 6.9 mph - 0.04 in Rain Rain
7:35 AM 52.0 °F 52.0 °F 100% 29.93 in 5.0 mi North 5.8 mph - 0.12 in Rain Heavy Rain
7:55 AM 52.0 °F 52.0 °F 100% 29.92 in 4.0 mi North 4.6 mph - 0.21 in Rain Heavy Rain
8:15 AM 52.0 °F 52.0 °F 100% 29.93 in 3.0 mi NNE 4.6 mph - 0.07 in Rain Heavy Rain
8:35 AM 52.2 °F 52.2 °F 100% 29.92 in - North 6.9 mph - N/A   Unknown
9:15 AM 52.7 °F 52.7 °F 100% 29.92 in 2.5 mi North 6.9 mph - 0.11 in Rain Heavy Rain
9:55 AM 53.8 °F 53.8 °F 100% 29.89 in 5.0 mi North 8.1 mph - 0.10 in Rain Heavy Rain
10:15 AM 54.5 °F 54.5 °F 100% 29.88 in 4.0 mi North 6.9 mph - 0.08 in Rain Heavy Rain
10:35 AM 55.4 °F 55.4 °F 100% 29.87 in 4.0 mi North 6.9 mph 16.1 mph 0.17 in Rain Heavy Rain
10:55 AM 55.9 °F 55.9 °F 100% 29.87 in 7.0 mi North 10.4 mph 17.3 mph 0.24 in Rain Rain
11:15 AM 56.3 °F 56.3 °F 100% 29.86 in 5.0 mi North 8.1 mph 17.3 mph 0.03 in Rain Rain
11:35 AM 56.3 °F 56.3 °F 100% 29.86 in 5.0 mi North 6.9 mph - 0.08 in Rain Rain
11:55 AM 56.5 °F 56.5 °F 100% 29.86 in 5.0 mi NNE 8.1 mph 17.3 mph 0.13 in Rain Rain
12:15 PM 56.5 °F 56.5 °F 100% 29.83 in 5.0 mi North 12.7 mph 19.6 mph 0.04 in Rain Rain
12:35 PM 56.5 °F 56.5 °F 100% 29.83 in 10.0 mi North 12.7 mph 21.9 mph 0.06 in Rain Light Rain
12:55 PM 56.5 °F 56.5 °F 100% 29.83 in 7.0 mi North 10.4 mph 17.3 mph 0.07 in   Heavy Drizzle
1:15 PM 56.5 °F 56.5 °F 100% 29.81 in 10.0 mi North 11.5 mph 19.6 mph N/A   Drizzle
1:35 PM 56.5 °F 56.5 °F 100% 29.81 in 3.0 mi North 8.1 mph - 0.01 in Rain Rain
1:55 PM 56.5 °F 56.5 °F 100% 29.81 in 3.0 mi North 12.7 mph 19.6 mph 0.03 in   Heavy Drizzle
2:15 PM 56.7 °F 56.7 °F 100% 29.80 in 3.0 mi North 13.8 mph 21.9 mph 0.01 in   Heavy Drizzle
2:35 PM 57.2 °F 57.2 °F 100% 29.80 in 4.0 mi North 11.5 mph 16.1 mph 0.02 in   Heavy Drizzle
2:55 PM 57.4 °F 57.4 °F 100% 29.80 in 4.0 mi North 10.4 mph 19.6 mph 0.02 in   Drizzle
3:35 PM 57.6 °F 57.6 °F 100% 29.81 in 5.0 mi North 9.2 mph 16.1 mph N/A   Drizzle
3:55 PM 57.4 °F 57.4 °F 100% 29.82 in 5.0 mi North 13.8 mph 21.9 mph N/A   Heavy Drizzle
4:15 PM 57.2 °F 57.2 °F 100% 29.83 in 5.0 mi NNW 9.2 mph 17.3 mph N/A   Drizzle
4:35 PM 57.2 °F 57.2 °F 100% 29.83 in 5.0 mi NNW 11.5 mph 20.7 mph 0.01 in   Drizzle
4:55 PM 57.2 °F 57.2 °F 100% 29.83 in 5.0 mi NNW 12.7 mph 18.4 mph 0.01 in   Drizzle
5:15 PM 57.2 °F 57.2 °F 100% 29.84 in 7.0 mi NNW 10.4 mph 18.4 mph N/A   Drizzle
5:35 PM 57.0 °F 57.0 °F 100% 29.84 in 7.0 mi NNW 12.7 mph 21.9 mph N/A   Drizzle
5:55 PM 56.8 °F 56.8 °F 100% 29.85 in 5.0 mi NNW 5.8 mph 18.4 mph N/A   Heavy Drizzle
6:15 PM 56.8 °F 56.8 °F 100% 29.85 in 7.0 mi NNW 10.4 mph 18.4 mph 0.01 in   Heavy Drizzle
6:35 PM 56.8 °F 56.8 °F 100% 29.86 in 10.0 mi NNW 11.5 mph 18.4 mph 0.01 in   Heavy Drizzle
6:55 PM 56.7 °F 56.7 °F 100% 29.87 in 10.0 mi NNW 11.5 mph 18.4 mph 0.01 in   Heavy Drizzle
7:15 PM 56.7 °F 56.7 °F 100% 29.87 in 10.0 mi NNW 8.1 mph 18.4 mph N/A   Drizzle
7:55 PM 56.7 °F 56.7 °F 100% 29.89 in 10.0 mi North 6.9 mph - 0.01 in   Overcast
8:15 PM 56.7 °F 56.7 °F 100% 29.90 in 10.0 mi NNW 10.4 mph - N/A   Overcast
8:35 PM 56.7 °F 56.7 °F 100% 29.91 in 10.0 mi NNW 8.1 mph - N/A   Overcast
8:55 PM 56.5 °F 56.5 °F 100% 29.91 in 10.0 mi NNW 4.6 mph - N/A   Overcast
9:15 PM 56.5 °F 56.5 °F 100% 29.91 in 10.0 mi North 4.6 mph - N/A   Overcast
9:35 PM 56.3 °F 56.3 °F 100% 29.92 in 10.0 mi NNW 8.1 mph - N/A   Overcast
9:55 PM 56.3 °F 56.3 °F 100% 29.93 in 10.0 mi North 8.1 mph - N/A   Overcast
10:15 PM 56.3 °F 56.3 °F 100% 29.95 in 10.0 mi NNW 9.2 mph 16.1 mph N/A   Overcast
10:35 PM 55.8 °F 55.8 °F 100% 29.96 in 10.0 mi NNW 8.1 mph - N/A   Drizzle
10:55 PM 55.4 °F 55.4 °F 100% 29.96 in 10.0 mi NNW 8.1 mph - N/A   Light Drizzle
11:35 PM 55.4 °F 55.4 °F 100% 29.97 in 7.0 mi NNW 6.9 mph - N/A   Overcast
11:55 PM 55.4 °F 55.4 °F 100% 29.97 in 10.0 mi NNW 4.6 mph - N/A   Light Drizzle